Погода в Майском

Россия / Республика Адыгея     44°46′34″N   40°32′58″E
темп.,
°C
ветер,
м/с
пор.,
м/с
влажн.,
%
обл.,
%
осадки,
мм/ч
давл.,
гПа
погр.,
м
5 марта, пт
пт500:000ююв23840 0.0 102140
03:00−1ю22820 0.0 102124
06:00−2ююз12760 0.0 102022
09:00+2ююв23710 0.0 1019107
12:00+6вюв01640 0.0 1018267
15:00+7вюв226821 0.0 1017269
18:00+4ююв347413 0.0 101857
21:00+3ююв34766 0.0 101941
6 марта, сб
сб600:00+2ю23650 0.0 101926
03:00+2ююв12592 0.0 101922
06:00+3ю345671 0.0 101830
09:00+7ююз3126184 0.0 1017393
12:00+14зюз7154780 0.0 10151493
15:00+13зюз8154877 0.0 10131114
18:00+9зюз71756100 0.0 1014635
21:00+5зсз81295100 2.8 1017730
7 марта, вс
вс700:000сз61099100 7.5 1021568
03:00−1сз4784100 10.1 1024741
06:00−5зсз228333 0.0 102632
09:00−2з237317 0.0 1027476
12:000з22600 0.0 1025959
15:00+1з23530 0.0 10241201
18:000з23690 0.0 102439
21:00−2юз34722 0.0 102572
8 марта, пн
пн800:00−2юз35750 0.0 1024119
03:00−2юз377945 0.0 1023236
06:00−3ю357616 0.0 1022144
09:000ююз36648 0.0 1021658
12:00+3юз465628 0.0 10191219
15:00+5з475045 0.0 10181628
18:00+1з366663 0.0 1018147
21:00−1юз347432 0.0 101980
9 марта, вт
вт900:00−1юз33740 0.0 101966
03:00−1ю33742 0.0 101863
06:00−1ююв237894 0.0 101753
09:00+2ююз226456 0.0 1017258
12:00+6зюз37540 0.0 10161264
15:00+7з913567 0.1 10151876
18:00+3з6126914 0.0 1015378
21:00+1зсз5119157 0.1 1017439